Content
SEND FEEDBACK

Daily
Averages
Monthly
Summary
United States of America

DOUGLAS, WYOMING


Home > North America > United States > Wyoming
Elevation: 1486 meters     Latitude: 42 44N     Longitude: 105 21W

WEATHER
 
SELECT A DAY
Number of Records: 161,857;   Date Range: 5/28/98 - 9/22/14
 
SHARE

PRINT THIS DATA

[ ← Previous Day ]
WEATHER ALMANAC - 31 JANUARY, 2013
[ Next Day → ]
[ °F ]   °C
Weather ElementAverageHighLow
Temperature-5.7 °C-2.8 °C (2:53 pm)-9 °C (10:29 am)
Dewpoint-8.9 °C-6.1 °C (6:53 pm)-13 °C (10:29 am)
Humidity78.9 %88 % (3:53 am)72 % (3:53 pm)
Barometer1020.3 hPa1025.4 hPa (9:53 am)1012.9 hPa (12:31 am)
Wind Speed13 km/h25.9 km/h (7:50 am)
Weather ElementAverage
Visibility10.9 km
Wind DirectionSSW (195 °)

Weather ElementTotal
Precipitation0.25 mm
Heating Degree Days24.2 (Base 18.3)
Averaged from 34 records on 31 January, 2013
WEATHER CONDITIONS BREAKOUT
WIND DIRECTION BREAKOUT
WEATHER BY HOUR - 31 JANUARY, 2013
[ °F ]   °C
Local TimeTemperatureDewpointHumidityBarometerVisibilityWind DirectionWind SpeedGust SpeedPrecipitationEventsConditions
12:31 AM-5 °C-7 °C86 %1012.9 hPa2.4 kmNW (310°)16.7 km/h0 mmSnowLight Snow
12:53 AM-5 °C-7.2 °C85 %1016.3 hPa4.8 kmWNW (300°)20.4 km/h0 mmSnowLight Snow
1:02 AM-5 °C-8 °C80 %1013.2 hPa8 kmWNW (300°)18.5 km/h0 mmSnowLight Snow
1:53 AM-5.6 °C-8.3 °C82 %1016.6 hPa12.9 kmWNW (300°)18.5 km/h0 mmSnowLight Snow
2:53 AM-5 °C-8.9 °C74 %1016.3 hPa16.1 kmNW (320°)18.5 km/h0 mmOvercast
3:53 AM-6.1 °C-7.8 °C88 %1017.3 hPa4.8 kmNW (320°)14.8 km/h0 mmSnowLight Snow
4:31 AM-6 °C-8 °C86 %1014.2 hPa16.1 kmNW (320°)18.5 km/h0 mmOvercast
4:53 AM-5.6 °C-8.3 °C82 %1017.9 hPa16.1 kmNW (320°)16.7 km/h0 mmOvercast
5:53 AM-6.1 °C-9.4 °C78 %1019.6 hPa16.1 kmNNW (330°)24.1 km/hOvercast
6:53 AM-6.1 °C-10 °C74 %1021 hPa16.1 kmNW (320°)24.1 km/hOvercast
7:38 AM-7 °C-10 °C80 %1017.6 hPa11.3 kmNNW (330°)24.1 km/h0 mmSnowLight Snow
7:50 AM-7 °C-9 °C86 %1017.6 hPa1.3 kmNNW (330°)25.9 km/h0 mmSnowLight Snow
7:53 AM-6.7 °C-9.4 °C81 %1022.7 hPa0.8 kmNNW (330°)24.1 km/h0 mmSnowSnow
8:08 AM-7 °C-9 °C86 %1017.9 hPa1.9 kmNW (320°)22.2 km/h0 mmSnowLight Snow
8:16 AM-7 °C-10 °C80 %1018.3 hPa4.8 kmNW (320°)20.4 km/h0 mmSnowLight Snow
8:53 AM-7.2 °C-11.1 °C74 %1023.4 hPa9.7 kmNorth (10°)16.7 km/h0 mmSnowLight Snow
9:32 AM-8 °C-12 °C73 %1019.6 hPa3.2 kmNorth (10°)7.4 km/h0 mmSnowLight Snow
9:53 AM-8.3 °C-11.7 °C77 %1025.4 hPa3.2 kmNorth (10°)13 km/h0 mmSnowLight Snow
10:02 AM-8 °C-12 °C73 %1020 hPa2.4 kmNNE (20°)13 km/h0 mmSnowLight Snow
10:19 AM-8 °C-12 °C73 %1019.6 hPa4 kmNNE (20°)9.3 km/h0 mmSnowLight Snow
10:29 AM-9 °C-13 °C73 %1020 hPa6.4 kmNorth (10°)11.1 km/h0 mmSnowLight Snow
10:53 AM-8.3 °C-12.2 °C74 %1025.1 hPa16.1 kmNNW (340°)5.6 km/h0 mmOvercast
11:53 AM-6.7 °C-10.6 °C74 %1024 hPa16.1 kmCalm0.25 mmOvercast
12:53 PM-4.4 °C-8.3 °C75 %1023 hPa16.1 kmSouth (180°)9.3 km/hScattered Clouds
1:53 PM-3.9 °C-7.8 °C75 %1022.7 hPa16.1 kmSW (220°)7.4 km/hOvercast
2:53 PM-2.8 °C-6.7 °C75 %1022.4 hPa16.1 kmCalmOvercast
3:53 PM-2.8 °C-7.2 °C72 %1022.7 hPa16.1 kmSE (140°)5.6 km/hOvercast
4:53 PM-2.8 °C-6.7 °C75 %1022.4 hPa16.1 kmSSW (200°)5.6 km/hOvercast
5:53 PM-3.3 °C-6.7 °C78 %1023 hPa16.1 kmSW (220°)9.3 km/hOvercast
6:53 PM-3.3 °C-6.1 °C81 %1023.4 hPa16.1 kmCalmOvercast
7:53 PM-3.9 °C-6.7 °C81 %1023.4 hPa16.1 kmSE (140°)5.6 km/hOvercast
8:53 PM-3.9 °C-6.1 °C85 %1023.4 hPa16.1 kmSouth (170°)5.6 km/hOvercast
9:53 PM-4.4 °C-7.2 °C81 %1023 hPa16.1 kmSouth (170°)9.3 km/hMostly Cloudy
11:53 PM-6.1 °C-8.3 °C85 %1023 hPa16.1 kmCalmOvercast
Hourly data recorded from KDGW, located 0 kilometers away from Douglas, Wyoming







STORIES FROM OUR PARTNERS